When you browse on this site, cookies collect data to enhance your experience and personalize the content and advertising you see.
Visit our Privacy Policy to learn more. By continuing to use the site, you agree to this use of cookies and data.
  • In United Kingdom
  • List of Countries
  • For 7 days
  • Water Temperature
  • Weather Map
  • Weather Widgets
  • user-avatar
    Login

    Hourly Weather Kandi

    Today, 20 October, Sunday

    Time Temperature Precipitation Wind Pressure Humidity
    00:00 +25°C° 0 mm 2 mps 737 mmHg 93%
    01:00 +25°C° 0.2 mm 1 mps 737 mmHg 93%
    02:00 +25°C° 0.2 mm 1 mps 736 mmHg 93%
    03:00 +23°C° 0.2 mm 0 mps 736 mmHg 93%
    04:00 +25°C° 0 mm 1 mps 736 mmHg 93%
    05:00 +25°C° 0 mm 1 mps 737 mmHg 93%
    06:00 +25°C° 0 mm 1 mps 737 mmHg 92%
    07:00 +25°C° 0 mm 1 mps 737 mmHg 91%
    08:00 +26°C° 0 mm 2 mps 738 mmHg 89%
    09:00 +26°C° 0 mm 2 mps 738 mmHg 88%
    10:00 +28°C° 0 mm 2 mps 737 mmHg 79%
    11:00 +30°C° 0 mm 2 mps 737 mmHg 71%
    12:00 +32°C° 0 mm 2 mps 736 mmHg 63%
    13:00 +32°C° 0.8 mm 2 mps 736 mmHg 65%
    14:00 +31°C° 0.8 mm 2 mps 735 mmHg 67%
    15:00 +31°C° 0.8 mm 2 mps 734 mmHg 69%
    16:00 +30°C° 2.5 mm 2 mps 735 mmHg 75%
    17:00 +28°C° 2.5 mm 2 mps 735 mmHg 80%
    18:00 +27°C° 2.5 mm 2 mps 736 mmHg 86%
    19:00 +27°C° 0.7 mm 2 mps 737 mmHg 88%
    20:00 +26°C° 0.7 mm 2 mps 737 mmHg 89%
    21:00 +26°C° 0.7 mm 2 mps 738 mmHg 91%
    22:00 +25°C° 0 mm 2 mps 738 mmHg 92%
    23:00 +25°C° 0 mm 2 mps 738 mmHg 93%

    Tomorrow, 21 October, Monday

    Time Temperature Precipitation Wind Pressure Humidity
    00:00 +25°C° 0 mm 2 mps 737 mmHg 94%
    01:00 +25°C° 0 mm 2 mps 737 mmHg 94%
    02:00 +24°C° 0 mm 1 mps 737 mmHg 94%
    03:00 +24°C° 0 mm 1 mps 737 mmHg 95%
    04:00 +24°C° 0 mm 1 mps 737 mmHg 95%
    05:00 +24°C° 0 mm 1 mps 738 mmHg 95%
    06:00 +24°C° 0 mm 1 mps 738 mmHg 96%
    07:00 +26°C° 0 mm 2 mps 738 mmHg 90%
    08:00 +27°C° 0 mm 2 mps 739 mmHg 85%
    09:00 +29°C° 0 mm 2 mps 739 mmHg 79%
    10:00 +30°C° 0 mm 2 mps 738 mmHg 71%
    11:00 +32°C° 0 mm 2 mps 738 mmHg 63%
    12:00 +34°C° 0 mm 1 mps 737 mmHg 55%
    13:00 +34°C° 0 mm 1 mps 736 mmHg 54%
    14:00 +34°C° 0 mm 1 mps 736 mmHg 53%
    15:00 +32°C° 0 mm 0 mps 735 mmHg 52%
    16:00 +31°C° 0 mm 0 mps 735 mmHg 56%
    17:00 +29°C° 0 mm 0 mps 735 mmHg 61%
    18:00 +28°C° 0 mm 0 mps 735 mmHg 66%
    19:00 +27°C° 0 mm 0 mps 736 mmHg 68%
    20:00 +27°C° 0 mm 0 mps 736 mmHg 69%
    21:00 +29°C° 0 mm 1 mps 737 mmHg 71%
    22:00 +28°C° 0 mm 1 mps 736 mmHg 73%
    23:00 +28°C° 0 mm 1 mps 736 mmHg 75%

    Day after tomorrow, 22 October, Tuesday

    Time Temperature Precipitation Wind Pressure Humidity
    00:00 +27°C° 0 mm 2 mps 736 mmHg 77%
    01:00 +27°C° 0 mm 2 mps 735 mmHg 80%
    02:00 +27°C° 0 mm 1 mps 735 mmHg 82%
    03:00 +26°C° 0 mm 1 mps 735 mmHg 85%
    04:00 +26°C° 0 mm 1 mps 735 mmHg 86%
    05:00 +26°C° 0 mm 1 mps 736 mmHg 87%
    06:00 +26°C° 0 mm 1 mps 736 mmHg 89%
    07:00 +27°C° 0 mm 1 mps 736 mmHg 83%
    08:00 +29°C° 0 mm 1 mps 737 mmHg 77%
    09:00 +31°C° 0 mm 2 mps 737 mmHg 71%
    10:00 +33°C° 0 mm 1 mps 736 mmHg 64%
    11:00 +35°C° 0 mm 1 mps 736 mmHg 57%
    12:00 +37°C° 0 mm 1 mps 735 mmHg 50%
    13:00 +37°C° 0 mm 1 mps 734 mmHg 48%
    14:00 +37°C° 0 mm 1 mps 734 mmHg 46%
    15:00 +37°C° 0 mm 1 mps 733 mmHg 44%
    16:00 +35°C° 0 mm 1 mps 733 mmHg 50%
    17:00 +33°C° 0 mm 1 mps 733 mmHg 56%
    18:00 +31°C° 0 mm 1 mps 733 mmHg 61%
    19:00 +31°C° 0 mm 1 mps 734 mmHg 64%
    20:00 +30°C° 0 mm 1 mps 734 mmHg 67%
    21:00 +30°C° 0 mm 1 mps 735 mmHg 70%
    22:00 +29°C° 0 mm 1 mps 735 mmHg 72%
    23:00 +29°C° 0 mm 1 mps 735 mmHg 75%

    23 October, Wednesday

    Time Temperature Precipitation Wind Pressure Humidity
    00:00 +28°C° 0 mm 1 mps 734 mmHg 77%
    01:00 +28°C° 0 mm 1 mps 734 mmHg 79%
    02:00 +27°C° 0 mm 1 mps 734 mmHg 81%
    03:00 +27°C° 0 mm 1 mps 734 mmHg 84%
    04:00 +27°C° 0 mm 1 mps 734 mmHg 84%
    05:00 +27°C° 0 mm 1 mps 734 mmHg 85%
    06:00 +26°C° 0 mm 1 mps 735 mmHg 86%
    07:00 +28°C° 0 mm 1 mps 735 mmHg 80%
    08:00 +30°C° 0 mm 1 mps 736 mmHg 74%
    09:00 +31°C° 0 mm 1 mps 736 mmHg 68%
    10:00 +33°C° 0 mm 1 mps 736 mmHg 63%
    11:00 +34°C° 0 mm 1 mps 735 mmHg 58%
    12:00 +36°C° 0 mm 1 mps 735 mmHg 53%
    13:00 +35°C° 0 mm 1 mps 734 mmHg 53%
    14:00 +35°C° 0 mm 1 mps 734 mmHg 53%
    15:00 +35°C° 0 mm 1 mps 733 mmHg 54%
    16:00 +33°C° 0 mm 1 mps 734 mmHg 60%
    17:00 +32°C° 0 mm 2 mps 734 mmHg 67%
    18:00 +30°C° 0 mm 2 mps 734 mmHg 73%
    19:00 +30°C° 0 mm 2 mps 735 mmHg 75%
    20:00 +29°C° 0 mm 2 mps 735 mmHg 76%
    21:00 +29°C° 0 mm 2 mps 736 mmHg 78%
    22:00 +28°C° 0 mm 2 mps 735 mmHg 80%
    23:00 +28°C° 0 mm 2 mps 735 mmHg 81%

    24 October, Thursday

    Time Temperature Precipitation Wind Pressure Humidity
    00:00 +27°C° 0 mm 2 mps 735 mmHg 83%
    01:00 +27°C° 0 mm 2 mps 735 mmHg 85%
    02:00 +26°C° 0 mm 2 mps 735 mmHg 87%
    03:00 +26°C° 0 mm 2 mps 735 mmHg 89%
    04:00 +26°C° 0 mm 2 mps 735 mmHg 90%
    05:00 +25°C° 0 mm 1 mps 735 mmHg 92%
    06:00 +25°C° 0 mm 1 mps 736 mmHg 93%
    07:00 +27°C° 0 mm 1 mps 736 mmHg 84%
    08:00 +29°C° 0 mm 1 mps 737 mmHg 76%
    09:00 +31°C° 0 mm 1 mps 737 mmHg 68%
    10:00 +33°C° 0 mm 1 mps 737 mmHg 61%
    11:00 +33°C° 0 mm 0 mps 736 mmHg 54%
    12:00 +35°C° 0 mm 0 mps 735 mmHg 47%
    13:00 +35°C° 0 mm 0 mps 735 mmHg 45%
    14:00 +37°C° 0 mm 1 mps 734 mmHg 42%
    15:00 +36°C° 0 mm 1 mps 734 mmHg 40%
    16:00 +35°C° 0 mm 1 mps 734 mmHg 45%
    17:00 +33°C° 0 mm 1 mps 734 mmHg 50%
    18:00 +31°C° 0 mm 1 mps 734 mmHg 55%
    19:00 +30°C° 0 mm 1 mps 735 mmHg 58%
    20:00 +30°C° 0 mm 1 mps 735 mmHg 60%
    21:00 +29°C° 0 mm 1 mps 736 mmHg 63%
    22:00 +29°C° 0 mm 1 mps 736 mmHg 66%
    23:00 +28°C° 0 mm 1 mps 736 mmHg 68%

    25 October, Friday

    Time Temperature Precipitation Wind Pressure Humidity
    00:00 +28°C° 0 mm 1 mps 736 mmHg 71%
    01:00 +27°C° 0 mm 1 mps 735 mmHg 74%
    02:00 +27°C° 0 mm 1 mps 735 mmHg 77%
    03:00 +26°C° 0 mm 1 mps 735 mmHg 80%
    04:00 +26°C° 0 mm 1 mps 735 mmHg 80%
    05:00 +26°C° 0 mm 1 mps 736 mmHg 81%
    06:00 +26°C° 0 mm 1 mps 736 mmHg 82%
    07:00 +28°C° 0 mm 1 mps 736 mmHg 76%
    08:00 +30°C° 0 mm 1 mps 737 mmHg 69%
    09:00 +32°C° 0 mm 1 mps 737 mmHg 62%
    10:00 +33°C° 0 mm 1 mps 736 mmHg 54%
    11:00 +35°C° 0 mm 1 mps 736 mmHg 47%
    12:00 +37°C° 0 mm 1 mps 735 mmHg 39%
    13:00 +37°C° 0 mm 1 mps 735 mmHg 36%
    14:00 +39°C° 0 mm 1 mps 734 mmHg 32%
    15:00 +39°C° 0 mm 1 mps 733 mmHg 29%
    16:00 +36°C° 0 mm 1 mps 733 mmHg 35%
    17:00 +33°C° 0 mm 1 mps 734 mmHg 41%
    18:00 +31°C° 0 mm 1 mps 734 mmHg 46%
    19:00 +30°C° 0 mm 1 mps 734 mmHg 50%
    20:00 +30°C° 0 mm 1 mps 734 mmHg 54%
    21:00 +29°C° 0 mm 1 mps 735 mmHg 57%
    22:00 +28°C° 0 mm 1 mps 735 mmHg 61%
    23:00 +28°C° 0 mm 1 mps 735 mmHg 64%
    Show more